Location: *
(11.6667°N, 92.7500°E)
Time: 07:35:42
(UTC+00:00)

Daily predictions for brighter satellites

Satellite Brightness Start Highest point End
(mag) Time Altitude Azimuth Time Altitude Azimuth Time Altitude Azimuth
Cosmos 2297 4.2 12:14:23 10° N 12:19:39 38° ENE 12:24:55 10° SE
Cosmos 2278 Rocket 3.8 12:15:56 10° NW 12:21:09 39° WSW 12:26:22 10° S
GOES 2 Rocket 4.0 12:19:30 10° NW 12:23:17 31° NNE 12:27:04 10° E
STARLINK-1124 4.5 12:21:52 10° NNW 12:25:35 32° NE 12:29:18 10° ESE
STARLINK-1066 2.9 12:23:29 10° NW 12:26:38 81° SW 12:29:45 10° SSE
STARLINK-1081 2.9 12:23:58 10° NW 12:27:03 79° SW 12:30:09 10° SSE
STARLINK-1070 3.0 12:24:25 10° NW 12:27:30 78° SW 12:30:36 10° SSE
Cosmos 304 Rocket 3.8 12:22:44 10° NNW 12:27:30 86° WSW 12:32:17 10° S
STARLINK-1069 3.0 12:24:50 10° NW 12:27:57 76° WSW 12:31:05 10° SSE
STARLINK-1085 3.0 12:25:18 10° NW 12:28:26 75° SW 12:31:33 10° SSE
STARLINK-1086 3.0 12:25:46 10° NW 12:28:51 73° WSW 12:31:57 10° SSE
STARLINK-1095 3.1 12:26:13 10° NW 12:29:18 72° SW 12:32:22 10° SSE
STARLINK-1077 3.1 12:26:40 10° NW 12:29:45 71° WSW 12:32:50 10° SSE
STARLINK-1075 3.1 12:27:08 10° NW 12:30:12 69° SW 12:33:17 10° SSE
STARLINK-1122 4.3 12:26:44 10° NNW 12:30:34 37° NE 12:34:24 10° ESE
STARLINK-1093 3.2 12:27:33 10° NW 12:30:40 68° SW 12:33:47 10° SSE
STARLINK-1074 3.2 12:28:01 10° NW 12:31:07 67° SW 12:34:13 10° SSE
STARLINK-1087 3.2 12:28:29 10° NW 12:31:33 65° SW 12:34:38 10° SSE
STARLINK-1088 3.2 12:28:56 10° NW 12:32:00 64° SW 12:35:04 10° SSE
STARLINK-1115 3.3 12:29:21 10° NW 12:32:27 63° SW 12:35:33 10° SSE
STARLINK-1076 3.3 12:29:49 10° NW 12:32:55 62° SW 12:36:00 10° SSE
STARLINK-1092 3.4 12:30:15 10° NW 12:33:21 61° SW 12:36:27 10° SSE
STARLINK-1080 3.4 12:30:44 10° NW 12:33:48 59° SW 12:36:51 10° SSE
Cosmos 1943 Rocket 3.6 12:30:27 10° NNE 12:33:55 17° ENE 12:36:45 12° ESE
STARLINK-1090 3.4 12:31:12 10° NW 12:34:15 58° SW 12:37:18 10° SSE
STARLINK-1089 3.5 12:31:38 10° NW 12:34:41 57° SW 12:37:44 10° SSE
H-2A R/B 3.8 12:33:23 11° E 12:35:00 12° ENE 12:36:53 10° NE
STARLINK-1107 3.5 12:32:06 10° NW 12:35:08 56° SW 12:38:11 10° SSE
STARLINK-1126 4.1 12:31:38 10° NNW 12:35:34 43° NE 12:39:16 11° SE
SL-14 R/B 3.3 12:32:32 10° N 12:36:26 60° E 12:40:17 10° SSE
Okean 1-7 Rocket 4.0 12:33:06 10° N 12:37:27 67° W 12:41:50 10° S
Cosmos 1626 2.0 12:36:07 10° N 12:39:46 65° E 12:43:26 10° SSE
STARLINK-1082 3.9 12:36:32 10° NNW 12:40:32 50° NE 12:44:02 13° SE
Cosmos 2369 Rocket 3.8 12:39:34 10° NE 12:42:24 14° ENE 12:43:32 13° E
TSX-5 4.5 12:40:46 10° N 12:43:42 25° ENE 12:45:04 19° ESE
ATLAS 3B CENTAUR R/B 2.5 12:33:59 10° WNW 12:43:59 77° SSW 12:47:40 15° SE
USA 234 3.3 12:38:03 10° NE 12:44:31 65° SE 12:50:59 10° SSW
STARLINK-1100 3.7 12:41:26 10° NNW 12:45:30 58° NE 12:48:48 15° SE
CSL-04 Rocket 3.6 12:42:30 10° SSE 12:47:44 59° ENE 12:52:54 10° N
STARLINK-1083 3.6 12:46:21 10° NNW 12:50:27 67° NE 12:53:34 17° SE
Hubble Space Telescope 3.3 12:52:03 10° WNW 12:54:37 16° NNW 12:57:11 10° NNE
STARLINK-1125 3.5 12:51:18 10° NNW 12:55:25 78° NE 12:58:21 19° SE
Centaur AC-119 4.5 12:32:51 10° WSW 12:57:19 80° NNW 13:01:45 15° ENE
GPS 2-04 Rocket1 4.1 12:53:46 10° W 12:57:24 35° NNW 13:01:10 10° NE
Ariane Rocket 4.0 12:55:54 21° ESE 12:57:32 25° ENE 13:01:37 10° NNE
Delta 2 Rocket 4.0 12:54:41 10° WNW 12:58:51 56° SW 13:02:17 18° SE
STARLINK-1109 3.5 12:56:15 10° NW 13:00:23 90° NE 13:03:07 21° SE
Cosmos 1140 Rocket 3.6 12:56:16 10° S 13:01:17 50° ESE 13:06:17 10° NNE
CZ-2C R/B 4.2 12:58:11 10° NE 13:02:22 35° E 13:06:29 10° SSE
YAOGAN 1 3.1 12:58:43 10° S 13:02:58 59° W 13:07:13 10° NNW
CZ-4 R/B 3.0 13:00:53 10° SSW 13:04:26 35° W 13:07:57 10° NNW
STARLINK-1091 3.6 13:01:13 10° NW 13:05:20 78° WSW 13:07:53 22° SSE
GPS 2-18 Rocket1 3.0 13:02:28 10° WSW 13:06:10 75° NNW 13:07:44 33° ENE
Meteor 2-10 4.4 13:01:03 10° SSW 13:06:15 69° W 13:11:41 10° N
Cosmos 1190 Rocket 3.9 13:01:17 10° S 13:06:34 71° ESE 13:11:50 10° NNE
Cosmos 1908 3.3 13:03:11 10° SSE 13:06:52 47° E 13:10:33 10° NNE
Cosmos 1939 Rocket 4.0 13:03:09 10° S 13:06:58 45° W 13:10:44 10° NNW
STARLINK-1072 3.9 13:06:16 10° NW 13:10:21 65° SW 13:12:46 23° SSE
Nadezhda 1 Rocket 4.1 13:05:28 10° SSE 13:11:40 56° E 13:17:53 10° NNE
ARGOS 4.1 13:12:50 26° ENE 13:12:50 26° ENE 13:17:01 10° NNE
Ariane H10-3 2.9 13:08:44 10° W 13:13:19 56° S 13:15:30 31° ESE
STARLINK-1096 4.2 13:11:16 10° NW 13:15:18 56° SW 13:17:33 24° SSE
Cosmos 1953 4.5 13:12:36 10° SW 13:16:01 28° W 13:19:25 10° NNW
Orbus 7S? 2.9 13:15:02 10° NNW 13:17:44 90° ESE 13:18:59 41° SSE
Skynet4D Del rocket 4.3 13:13:57 10° SSW 13:18:51 31° SSE 13:19:20 31° SE
Cosmos 2058 Rocket 4.2 13:21:40 28° NE 13:21:40 28° NE 13:24:08 10° NNE
STARLINK-1079 4.4 13:16:18 10° NW 13:20:17 47° SW 13:22:20 25° S
HJ-1C 3.3 13:19:28 45° S 13:20:24 81° W 13:23:43 10° NNW
IRIDIUM 104 4.3 13:15:44 10° N 13:20:52 61° E 13:24:50 17° SSE
Milstar 3 Cent rocket 4.4 13:15:12 10° W 13:23:05 50° SSW 13:35:23 18° SE
GPS 2-15 Rocket1 3.4 13:19:00 10° WNW 13:23:52 59° NNE 13:24:58 47° ENE
Cosmos 1726 4.2 13:21:11 10° SSW 13:24:27 29° W 13:27:44 10° NNW
CZ-2C R/B 3.9 13:20:50 10° NNE 13:22:59 23° NE 13:22:59 23° NE
SJ-11-01 4.1 13:24:39 35° SSE 13:26:37 74° ENE 13:31:18 10° N
DMSP B5D2-2 4.1 13:22:25 10° NNE 13:27:29 52° ESE 13:32:35 10° S
ARIANE 5 R/B 4.3 13:26:07 10° SSW 13:26:13 11° SSW 13:26:13 11° SSW
Cosmos 1726 Rocket 3.6 13:24:12 10° S 13:28:33 78° W 13:32:56 10° N
IRIDIUM 114 4.2 13:24:48 10° N 13:30:00 79° E 13:34:00 17° S
ARGOS Delta rocket 4.1 13:30:08 13° S 13:34:38 76° W 13:39:55 10° NNW
Cosmos 676 Rocket 3.8 13:29:57 10° S 13:35:16 79° ESE 13:40:33 10° NNE
deb Ariane 3.7 13:33:30 10° WSW 13:37:35 40° SSW 13:37:35 40° SSW
IRIDIUM 103 4.3 13:33:57 10° N 13:39:09 81° W 13:43:10 17° S
Cosmos 2084 Rocket 4.0 13:45:36 10° NNW 13:49:10 56° NW 13:49:10 56° NW
Cosmos 1992 Rocket 4.0 13:49:44 10° NNW 13:54:49 74° W 13:54:49 74° W
Cosmos 2074 Rocket 3.9 13:49:12 10° N 13:55:30 85° W 13:57:20 49° S
Cosmos 1954 Rocket 4.5 13:53:21 10° SSW 13:58:32 58° WNW 14:03:41 10° N
CZ-3B Rocket 2.5 13:59:17 10° W 14:02:01 54° WNW 14:02:01 54° WNW
MOS 1 4.4 14:04:37 69° NW 14:04:37 69° NW 14:09:33 10° NNW
ATLAS 5 CENTAUR R/B 3.3 13:59:25 10° WNW 14:04:29 50° N 14:08:54 36° ENE
ATLAS 2AS CENTAUR RB 2.6 13:47:37 10° W 14:08:25 89° WNW 14:08:25 89° WNW
H-2A R/B 3.0 14:14:00 45° WSW 14:14:03 45° W 14:19:01 10° NNW
CZ-2C R/B 4.2 14:16:57 38° WNW 14:16:57 38° WNW 14:20:24 10° NNW
Cosmos 1943 Rocket 3.5 14:12:27 10° NW 14:17:29 35° WSW 14:18:23 33° SW
Cosmos 2369 Rocket 3.4 14:21:03 10° NW 14:25:24 38° W 14:25:24 38° W
Cosmos 2263 Rocket 4.1 20:59:51 25° NE 20:59:51 25° NE 21:02:30 10° NE
VEP-3 4.3 21:06:57 45° NNW 21:09:09 52° N 21:50:03 10° E
VEP-3 4.3 21:06:58 45° NNW 21:09:09 52° N 21:50:03 10° E
Centaur D-1A AC-32 3.4 21:32:49 62° SSE 21:32:49 62° SSE 21:45:39 10° ESE
Ariane 3 Deb 4.2 21:32:42 61° SSW 21:33:24 64° S 22:03:02 10° E
FUSE 4.4 21:40:05 55° NE 21:40:05 55° NE 21:44:15 10° ENE
Palapa B4 Rocket 4.2 21:44:40 63° SW 21:45:51 74° SSE 21:51:37 10° ENE
SWIFT 4.2 21:48:58 24° NNE 21:48:58 24° NNE 21:51:54 10° ENE
ARIANE 44L R/B 4.5 22:00:35 19° SSE 22:00:35 19° SSE 22:05:21 10° ESE
Meteor 1-31 Rocket 3.6 21:56:53 10° NNE 22:00:39 49° E 22:01:35 39° SE
STARLINK-1132 4.2 22:03:18 46° NE 22:03:18 46° NE 22:05:58 10° NE
STARLINK-1151 4.2 22:04:58 44° ENE 22:04:58 44° ENE 22:07:29 10° NE
Lacrosse 5 2.7 22:02:02 28° S 22:04:18 47° ESE 22:09:09 10° NE
ALOS 4.2 22:00:34 10° NE 22:04:34 29° E 22:08:35 10° SSE
STARLINK-1133 4.1 22:06:21 47° NE 22:06:21 47° NE 22:08:57 10° NE
STARLINK-1177 3.9 22:06:20 51° NE 22:06:20 51° NE 22:09:07 10° NE
STARLINK-1139 3.9 22:07:46 50° NE 22:07:46 50° NE 22:10:25 10° NE
STARLINK-1149 3.7 22:08:41 60° NNE 22:08:41 60° NNE 22:11:47 10° NE
STARLINK-1146 4.5 22:09:23 31° NE 22:09:23 31° NE 22:11:10 10° NE
STARLINK-1167 3.8 22:08:57 55° NE 22:08:57 55° NE 22:11:51 10° NE
STARLINK-1174 3.8 22:09:12 52° NE 22:09:12 52° NE 22:11:55 10° NE
STARLINK-1152 4.5 22:09:50 31° NE 22:09:50 31° NE 22:11:38 10° NE
STARLINK-1195 4.5 22:10:17 31° NNE 22:10:17 31° NNE 22:12:02 10° NE
Cosmos 1975 Rocket 4.3 22:05:07 10° SSE 22:09:09 40° E 22:13:12 10° NNE
STARLINK-1137 4.4 22:10:42 32° NNE 22:10:42 32° NNE 22:12:31 10° NE
STARLINK-1142 4.4 22:11:08 32° NNE 22:11:08 32° NNE 22:12:56 10° NE
STARLINK-1127 4.3 22:11:33 33° NNE 22:11:33 33° NNE 22:13:25 10° NNE
STARLINK-1184 4.3 22:12:00 33° NNE 22:12:00 33° NNE 22:13:52 10° NNE
STARLINK-1193 4.3 22:12:26 33° NNE 22:12:26 33° NNE 22:14:16 10° NNE
STARLINK-1180 3.6 22:12:07 58° NE 22:12:07 58° NE 22:14:57 10° NE
STARLINK-1194 4.2 22:12:51 34° NNE 22:12:51 34° NNE 22:14:46 10° NNE
Cosmos 2195 Rocket 4.4 22:09:54 33° SSW 22:12:35 59° W 22:18:38 10° N
STARLINK-1153 3.5 22:13:36 60° NNE 22:13:36 60° NNE 22:16:31 10° NE
Cosmos 1066 Rocket 4.2 22:11:19 33° SSW 22:13:54 62° W 22:19:41 10° N
H-2A R/B 3.0 22:10:50 10° NNE 22:14:36 50° ESE 22:18:13 11° S
Cosmos 1627 Rocket 4.4 22:10:57 20° SSW 22:15:15 63° W 22:21:18 10° N
STARLINK-1163 3.4 22:18:16 59° NNW 22:18:16 59° NNW 22:21:30 10° NNE
Cosmos 1844 Rocket 4.1 22:14:19 10° S 22:19:28 38° ESE 22:24:38 10° NE
CZ-2C R/B 3.3 22:17:32 10° NNW 22:20:20 27° NW 22:20:20 27° NW
Okean 1 Rocket 4.1 22:17:30 10° N 22:21:44 47° E 22:26:00 10° SSE
ASTRO E2 3.8 22:20:36 23° NNW 22:22:32 40° NNE 22:26:16 10° E
STARLINK-1168 3.3 22:24:18 55° NW 22:24:18 55° NW 22:27:34 10° NNE
SL-16 R/B 2.1 22:18:38 10° NNW 22:24:15 72° WSW 22:29:53 10° S
Ariane H10+ 4.4 22:17:52 26° SW 22:24:42 60° SSE 23:01:02 10° E
STARLINK-1164 3.3 22:25:50 52° NW 22:25:50 52° NW 22:29:09 10° NNE
STARLINK-1182 3.4 22:27:24 50° NW 22:27:24 50° NW 22:30:46 10° NNE
GPS 2-14 Rocket1 4.2 22:27:59 22° NW 22:29:18 26° N 22:32:44 10° NE
STARLINK-29 2.8 22:29:58 63° W 22:30:10 65° SW 22:33:23 10° SSE
STARLINK-1172 3.5 22:30:49 44° WNW 22:30:57 44° NW 22:34:18 10° NNE
STARLINK-1145 3.6 22:32:27 41° WNW 22:32:38 41° NW 22:35:58 10° NNE
STARLINK-1161 3.7 22:34:05 38° WNW 22:34:20 39° NW 22:37:38 10° NNE
Cosmos 1842 4.0 22:30:49 10° S 22:34:36 54° E 22:38:23 10° NNE
CZ-4B R/B 3.9 22:31:09 10° N 22:34:40 43° WNW 22:35:29 36° WSW
STARLINK-1160 3.8 22:35:43 36° WNW 22:36:03 37° NW 22:39:19 10° NNE
TRAILBLAZER 4.4 22:31:52 10° NNW 22:36:21 73° WSW 22:40:48 10° SSE
Atlas Centaur 2 4.2 22:36:10 10° S 22:38:25 13° SE 22:40:52 10° ESE
Yuri Rocket 4.0 22:38:30 25° SW 22:39:17 27° SSW 22:43:06 10° SSE
Meteor 2-13 Rocket 4.4 22:34:11 10° SSW 22:40:05 56° W 22:45:59 10° N
Cosmos 2263 Rocket 3.8 22:41:36 15° WNW 22:41:36 15° WNW 22:44:20 10° NW
Cosmos 1378 3.5 22:41:25 23° SW 22:43:09 38° W 22:46:37 10° NNW
PSLV R/B 2.7 22:43:28 21° WNW 22:46:08 84° SSW 22:48:20 10° ESE
Meteor 1-15 Rocket 4.2 22:41:26 10° N 22:47:05 86° W 22:52:51 10° S
Cosmos 1484 Rocket 3.1 22:45:34 10° N 22:49:02 38° WNW 22:52:29 10° SSW
ATLAS 5 CENTAUR R/B 4.4 22:47:51 10° N 22:53:50 36° ENE 23:00:15 10° SE
FALCON 9 DEB 3.7 22:51:55 17° WNW 22:54:02 34° SW 22:57:10 10° S
CZ-4B R/B 3.7 22:51:44 10° N 22:55:48 35° WNW 22:59:55 10° SW
Cosmos 1818 3.8 22:51:29 10° NNW 22:56:53 76° ENE 23:02:15 10° SSE
Cosmos 1805 3.9 22:54:58 10° N 22:58:47 58° E 23:02:35 10° SSE
Aureole 3 Rocket 3.4 22:56:22 10° N 22:59:26 45° E 23:02:20 10° SSE
Cosmos 1371 Rocket 4.1 22:54:32 10° SSW 22:59:52 89° WNW 23:05:14 10° NNE
GPS 2-04 Rocket1 4.2 22:59:17 15° WSW 23:00:35 18° SW 23:03:10 10° S
Cosmos 1624 Rocket 4.1 22:57:28 10° S 23:02:39 83° ESE 23:07:49 10° NNE
STARLINK-1178 4.3 23:01:41 10° SSW 23:05:46 57° SE 23:09:49 10° NE
GPS 2-12 Rocket1 3.3 23:05:03 12° W 23:08:59 50° SSW 23:13:17 10° SE
Cosmos 1689 Rocket 4.0 23:08:14 10° SW 23:09:41 13° W 23:11:08 10° WNW
STARLINK-52 4.5 23:08:22 11° WNW 23:10:35 19° WSW 23:12:55 10° S
STARLINK-1120 4.0 23:06:36 10° SSW 23:10:44 66° SE 23:14:51 10° NE
Cosmos 2266 Rocket 4.0 23:04:41 10° S 23:11:00 82° W 23:17:24 10° N
STARLINK-1131 3.8 23:11:33 10° SSW 23:15:42 78° SE 23:19:51 10° NE
Okean O Rocket 2.1 23:15:17 10° NNE 23:19:41 69° ESE 23:24:06 10° S
Cosmos 1707 3.2 23:16:35 10° S 23:20:22 67° E 23:24:10 10° N
STARLINK-1190 3.7 23:16:31 10° SW 23:20:41 90° E 23:24:50 10° NE
Cosmos 1242 Rocket 4.5 23:20:30 10° SSE 23:23:43 34° E 23:26:53 10° NNE
Cosmos 1455 Rocket 3.5 23:19:59 10° N 23:24:25 71° E 23:28:51 10° S
